Date,TemperatureHighF,TemperatureAvgF,TemperatureLowF,DewpointHighF,DewpointAvgF,DewpointLowF,HumidityHigh,HumidityAvg,HumidityLow,PressureMaxIn,PressureMinIn,WindSpeedMaxMPH,WindSpeedAvgMPH,GustSpeedMaxMPH,PrecipitationSumIn
2013-2-1,9.6,5.8,-2.1,7.0,2.1,-6.0,89,84,80,30.19,30.00,1,0,0,0.00
2013-2-2,11.9,2.6,-4.9,6.0,-1.8,-9.0,86,82,76,30.18,30.05,2,0,0,0.00
2013-2-3,13.1,6.7,-3.4,8.0,2.0,-7.0,87,81,69,30.04,29.89,2,0,0,0.00
2013-2-4,14.8,4.0,-4.4,7.0,-1.1,-8.0,85,80,64,30.08,29.96,2,0,0,0.00
2013-2-5,23.1,11.7,-4.3,17.0,7.1,-8.0,87,82,69,30.10,29.76,2,0,0,0.00
2013-2-6,20.5,11.3,-1.8,15.0,6.8,-5.0,89,82,70,30.28,30.10,1,0,0,0.00
2013-2-7,23.6,20.9,17.2,20.0,17.7,15.0,92,87,74,30.29,30.23,7,1,0,0.00
2013-2-8,22.0,17.7,3.3,19.0,12.3,0.0,87,79,72,30.46,30.29,5,1,0,0.00
2013-2-9,29.6,17.9,3.0,20.0,12.7,0.0,90,80,65,30.46,30.15,5,1,0,0.00
2013-2-10,32.8,27.2,21.9,31.0,24.5,19.0,94,89,85,30.16,29.43,3,0,0,0.00
2013-2-11,34.6,28.8,20.1,33.0,26.2,16.0,95,90,82,29.85,29.26,3,0,0,0.20
2013-2-12,26.0,22.5,15.7,20.0,17.6,13.0,91,81,68,29.99,29.79,5,1,0,0.00
2013-2-13,39.5,23.5,11.1,29.0,19.6,9.0,93,85,63,29.79,29.64,2,0,0,0.24
2013-2-14,30.4,24.8,18.2,27.0,21.0,11.0,93,86,69,30.00,29.67,5,1,0,0.00
2013-2-15,18.6,14.5,8.6,13.0,8.3,4.0,81,76,68,30.24,30.01,4,0,0,0.00
2013-2-16,17.1,11.6,5.8,7.0,4.7,1.0,87,75,57,30.25,30.15,4,0,0,0.00
2013-2-17,23.3,13.0,1.0,8.0,2.6,-3.0,82,65,42,30.23,30.00,6,0,0,0.00
2013-2-18,35.4,28.7,16.2,31.0,23.4,4.0,93,81,58,30.00,29.47,5,1,0,0.03
2013-2-19,30.8,17.4,10.0,29.0,14.7,7.0,93,89,85,30.06,29.41,4,1,0,0.00
2013-2-20,15.5,13.0,10.7,13.0,10.3,8.0,89,88,87,30.48,30.07,6,0,0,0.00
2013-2-21,23.5,20.1,14.5,22.0,17.7,12.0,98,90,88,30.56,30.36,9,1,0,0.00
2013-2-22,24.9,21.3,16.2,23.0,19.2,14.0,92,91,89,30.36,29.86,2,0,0,0.00
2013-2-23,32.1,26.0,19.0,29.0,23.8,17.0,93,91,85,29.88,29.77,3,0,0,0.09
2013-2-24,30.0,27.6,26.0,26.0,25.1,24.0,92,90,85,30.16,29.88,2,0,0,0.00
2013-2-25,35.7,29.1,22.1,29.0,25.5,20.0,92,86,73,30.19,30.13,2,0,0,0.04
2013-2-26,33.5,30.5,26.9,29.0,26.7,25.0,92,86,78,30.17,29.98,3,0,0,0.01
2013-2-27,32.2,30.8,30.0,30.0,28.1,26.0,95,89,83,29.98,29.85,11,2,0,0.00
2013-2-28,30.6,26.3,23.7,29.0,22.5,18.0,94,86,75,30.29,29.93,10,3,0,0.00